Location: Newark
(41.1192°N, 81.5292°W)
Time: 04:56:06
(UTC+00:00)

N. Korean satellite - Pass Details

Date: 18 November 2019
Orbit: 456 x 506 km, 97.2° (Epoch: 06 December)

Event Time Altitude Azimuth Distance (km) Brightness Sun altitude
Rises 23:26:04 0° 204° (SSW) 2,547 10.8 -15.3°
Reaches altitude 10° 23:28:40 10° 225° (SW) 1,683 10.2 -15.7°
Maximum altitude 23:31:06 17° 267° (W) 1,318 9.8 -16.2°
Drops below altitude 10° 23:33:34 10° 309° (NW) 1,709 9.9 -16.7°
Sets 23:36:15 0° 331° (NNW) 2,606 10.5 -17.1°
